Flag for Philippines Weather past 2 weeks in Makati, Philippines

Now
91 °F

Scattered clouds.


Feels Like: 105 °F
Forecast: 79 / 91 °F
Wind: 5 mph from Southwest

Location: National Airport

Current Time: Aug 3, 2015 at 1:31:48 PM

Latest Report: Aug 3, 2015 at 1:00 PM


Visibility: N/A

Pressure: 29.77 "Hg

Humidity: 63%

Dew point: 77 °F

Location of MakatiLocation

Historic Weather in Makati — Graph

°F

Makati temperature yesterday

Maximum temperature yesterday: 90 °F (at 1:00 PM)
Minimum temperature yesterday: 81 °F (at 5:00 AM)
Average temperature yesterday: 85 °F

Past Weeks' High & Low Weather Summary

 TemperatureHumidityPressure
High95 °F (Jul 20, 1:00 PM)100% (Jul 22, 6:00 PM)29.98 "Hg (Jul 22, 6:00 PM)
Low75 °F (Jul 25, 7:00 PM)41% (Jul 20, 1:00 PM)29.74 "Hg (Jul 31, 3:00 PM)
Average84 °F76%29.86 "Hg
* Reported Jul 19 12:00 Noon — Aug 3 12:00 Noon, Makati, Weather by CustomWeather, © 2015

Note: Actual official high and low records may vary slightly from our data, if they occured in-between our weather recording intervals... More about our weather records

Advertising

Makati weather history for previous 24 hours

 ConditionsComfort  
Time TempWeatherWind HumidityBarometerVisibility
12:00 PM
Mon, Aug 3
90 °FScattered clouds.5 mph63%29.80 "HgN/A
11:00 AM90 °FScattered clouds.8 mph67%29.83 "HgN/A
10:00 AM86 °FBroken clouds.7 mph66%29.83 "HgN/A
9:00 AM86 °FBroken clouds.6 mph66%29.83 "HgN/A
8:00 AM84 °FPassing clouds.7 mph74%29.83 "HgN/A
7:00 AM82 °FScattered clouds.6 mph79%29.83 "HgN/A
6:00 AM81 °FScattered clouds.No wind89%29.80 "HgN/A
5:00 AM81 °FPassing clouds.1 mph89%29.80 "HgN/A
4:00 AM81 °FPassing clouds.2 mph89%29.77 "HgN/A
3:00 AM81 °FPassing clouds.2 mph89%29.80 "HgN/A
2:00 AM81 °FPassing clouds.5 mph94%29.80 "HgN/A
1:00 AM82 °FPassing clouds.1 mph79%29.80 "HgN/A
12:00 AM82 °FPassing clouds.3 mph79%29.83 "HgN/A
11:00 PM
Sun, Aug 2
84 °FPassing clouds.5 mph74%29.83 "HgN/A
10:00 PM84 °FPassing clouds.6 mph74%29.83 "HgN/A
9:00 PM84 °FPassing clouds.6 mph70%29.80 "HgN/A
8:00 PM86 °FPassing clouds.6 mph66%29.80 "HgN/A
7:00 PM86 °FPartly cloudy.7 mph70%29.80 "HgN/A
6:00 PM86 °FBroken clouds.8 mph70%29.77 "HgN/A
5:00 PM90 °FBroken clouds.8 mph55%29.77 "HgN/A
4:00 PM90 °FBroken clouds.7 mph52%29.77 "HgN/A
3:00 PM88 °FBroken clouds.14 mph62%29.77 "HgN/A
2:00 PM88 °FBroken clouds.12 mph66%29.80 "Hg6 mi
1:00 PM90 °FScattered clouds.6 mph59%29.80 "HgN/A
Weather by CustomWeather, © 2015

See weather overviewHow to use our weather pages